Welcome to the New NWS' Forecast!
Most changes are behind the scenes, but click here for differences you might notice.
Latest weather observations around

Little Rock, Adams Field (KLIT)

Using English Units (Switch to International System of Units)
Date/ Time (CST) Wind (mph) Vis. (mi) Weather Sky Cond. Temp (°F) Rel. Humidity Wind Chill (°F) Heat Index (°F) Pressure Precip. (in)
Air Dwpt 6 hour Altimeter (inHg) Sea level (inHg) 1 hr 3 hr 6 hr
Max Min
Nov 22 03:53 N 11 10 Clear CLR 43 25     49% 37   30.28 30.29      
Nov 22 02:53 N 9 10 Clear CLR 43 27     53% 38   30.26 30.26      
Nov 22 01:53 N 8 10 Clear CLR 45 27     49% 41   30.23 30.24      
Nov 22 00:53 N 11 10 Clear CLR 47 31     53% 42   30.22 30.23      
Nov 21 23:53 N 14 10 Clear CLR 50 36     58% 45   30.19 30.2      
Nov 21 22:53 N 10 10 Clear CLR 51 37     59%     30.18 30.19      
Nov 21 21:53 N 13 10 Clear CLR 53 39     59%     30.16 30.17      
Nov 21 20:53 NNW 7 10 Clear CLR 47 46     97% 44   30.13 30.14      
Nov 21 19:53 Calm 10 Mostly Clear FEW250 48 45     89%     30.11 30.12      
Nov 21 18:53 Calm 10 Partly Cloudy FEW120 SCT250 52 47     83%     30.08 30.09      
Nov 21 17:53 Calm 10 Partly Cloudy FEW120 SCT250 53 46     77%     30.04 30.05      
Nov 21 16:53 E 3 10 Mostly Cloudy SCT120 BKN250 58 47     67%     30.01 30.02      
Nov 21 15:53 Calm 10 Cloudy BKN120 OVC250 61 47     60%     30 30.01      
Nov 21 14:53 S 6 10 Mostly Cloudy FEW120 BKN250 61 46     58%     29.99 29.99      
Nov 21 13:53 S 6 10 Mostly Cloudy BKN250 60 44     55%     30 30.01      
Nov 21 12:53 S 5 10 Mostly Cloudy SCT025 BKN250 58 41     53%     30.02 30.02      
Nov 21 11:53 W 9 10 Cloudy OVC024 57 40     53%     30.03 30.03      
Nov 21 10:53 Calm 10 Cloudy OVC022 52 37     57%     30.03 30.04      
Nov 21 10:02 ENE 3 10 Mostly Cloudy BKN022 BKN250 49 36     61% 48   30.03        
Nov 21 09:53 E 5 10 Mostly Cloudy FEW028 BKN250 49 36     61% 47   30.03 30.04      
Nov 21 08:53 Calm 10 Mostly Cloudy BKN250 45 35     68%     30.02 30.03      
Nov 21 07:53 SSE 5 10 Mostly Cloudy BKN250 39 34     82% 36   30.01 30.02      
Nov 21 06:53 SSE 7 10 Mostly Cloudy BKN250 36 31     82% 30   29.99 30      
Nov 21 05:53 S 6 10 Partly Cloudy SCT250 35 31     85% 30   29.98 29.99      
Nov 21 04:53 S 5 10 Mostly Cloudy BKN250 36 32     85% 32   29.98 29.99      
Nov 21 03:53 WSW 3 10 Mostly Cloudy BKN250 38 32     79% 36   29.99 29.99      
Nov 21 02:53 Calm 7 Cloudy OVC250 40 31     70%     29.97 29.98      
Nov 21 01:53 Calm 10 Mostly Cloudy BKN250 40 31     70%     29.98 29.99      
Nov 21 00:53 Calm 10 Mostly Cloudy BKN250 40 31     70%     30.02 30.02      
Nov 20 23:53 Calm 10 Mostly Cloudy BKN250 40 31     70%     30.02 30.03      
Nov 20 22:53 SSE 5 10 Mostly Cloudy BKN250 39 30     70% 36   30.03 30.04      
Nov 20 21:53 S 8 10 Mostly Clear FEW250 41 30     65% 36   30.05 30.06      
Nov 20 20:53 S 11 10 Mostly Clear FEW250 45 30     56% 39   30.05 30.06      
Nov 20 19:53 S 8 10 Clear CLR 42 29     59% 37   30.04 30.06      
Nov 20 18:53 S 8 10 Mostly Clear FEW250 44 30     58% 40   30.05 30.06      
Nov 20 17:53 SSE 6 10 Mostly Clear FEW250 48 29     47% 45   30.06 30.06      
Nov 20 16:53 S 8 10 Mostly Clear FEW015 FEW250 52 28     39%     30.06 30.07      
Nov 20 15:53 S 10 10 Partly Cloudy SCT250 57 27     31%     30.06 30.07      
Nov 20 14:53 SSW 10 10 Partly Cloudy SCT250 59 26     28%     30.08 30.09      
Nov 20 13:53 S 8 10 Partly Cloudy SCT250 58 26     29%     30.1 30.11      
Nov 20 12:53 SSW 7 10 Partly Cloudy SCT250 58 27     30%     30.13 30.14      
Nov 20 11:53 S 8 10 Partly Cloudy SCT250 56 26     31%     30.18 30.19      
Nov 20 10:53 S 9 10 Partly Cloudy SCT250 52 29     41%     30.23 30.24      
Nov 20 09:53 S 9 10 Partly Cloudy SCT250 47 30     52% 43   30.26 30.27      
Nov 20 08:53 S 6 10 Partly Cloudy SCT250 41 33     73% 37   30.27 30.28      
Nov 20 07:53 Calm 6 Fog/Mist SCT250 34 29     82%     30.27 30.28      
Nov 20 06:53 SSE 5 6 Fog/Mist BKN250 29 29     100% 24   30.26 30.27      
Nov 20 05:53 Calm 7 Partly Cloudy SCT250 31 31     100%     30.25 30.25      
Nov 20 04:53 SW 3 7 Partly Cloudy SCT250 31 31     100% 28   30.24 30.25      
Nov 20 03:53 Calm 7 Partly Cloudy SCT250 32 32     100%     30.23 30.24      
Nov 20 02:53 Calm 10 Mostly Clear FEW250 31 30     96%     30.24 30.24      
Nov 20 01:53 WSW 5 10 Clear CLR 34 32     92% 30   30.24 30.25      
Nov 20 00:53 WSW 5 10 Clear CLR 35 33     92% 31   30.25 30.26      
Nov 19 23:53 Calm 10 Clear CLR 36 33     89%     30.26 30.27      
Nov 19 22:53 Calm 10 Clear CLR 35 32     88%     30.26 30.27      
Nov 19 21:53 WSW 3 10 Clear CLR 37 32     82% 35   30.27 30.28      
Nov 19 20:53 Calm 10 Clear CLR 38 32     79%     30.26 30.27      
Nov 19 19:53 Calm 10 Clear CLR 41 29     62%     30.24 30.25      
Nov 19 18:53 Calm 10 Mostly Clear FEW250 45 29     53%     30.24 30.25      
Nov 19 17:53 NNE 5 10 Mostly Clear FEW250 49 21     33% 47   30.22 30.23      
Nov 19 16:53 NNW 8 10 Mostly Clear FEW250 52 20     28%     30.21 30.22      
Nov 19 15:53 N 11 10 Mostly Clear FEW250 57        %     30.22 30.23      
Nov 19 14:53 W 13 10 Mostly Clear FEW250 57 22     25%     30.22 30.23      
Nov 19 13:53 NNW 18 10 Mostly Clear FEW250 58 20     23%     30.24 30.25      
Nov 19 12:53 NW 11 10 Mostly Clear FEW250 56 21     25%     30.26 30.26      
Nov 19 11:53 NNW 9 10 Clear CLR 55 23     29%     30.29 30.3      
Nov 19 10:53 NNW 11 10 Clear CLR 53 23     31%     30.32 30.33      
Nov 19 09:53 NNW 11 10 Clear CLR 50 26     39% 46   30.32 30.32      
Nov 19 08:53 NW 13 10 Clear CLR 47 29     49% 41   30.31 30.32      
Nov 19 07:53 NW 9 10 Clear CLR 42 33     70% 37   30.3 30.31      
Nov 19 06:53 NW 8 10 Clear CLR 40 34     79% 34   30.28 30.29      
Nov 19 05:53 NW 5 10 Clear CLR 38 34     85% 34   30.25 30.26      
Nov 19 04:53 WNW 5 10 Clear CLR 37 34     89% 33   30.23 30.24      
Nov 19 03:53 W 3 10 Clear CLR 37 34     89% 35   30.22 30.23      
Jun 12 06:38 SSE 5 1 Light Drizzle and Fog/Mist SKC OVC005 71 71     100%   73 30.04   0    
Jun 12 03:28 S 6 10 Mostly Cloudy BKN013 72 70     93%   73 30        
Jun 11 18:53 S 10 10 Mostly Clear FEW050 86 67     53%   89 29.96 29.95      
Jun 11 15:53 S 10 10 Partly Cloudy SCT050 87 66     50%   89 29.99 29.99      
Jun 11 13:53 S 11 10 Partly Cloudy SCT050 87 64     46%   88 30.03 30.02      
Jun 11 08:53 S 6 10 Partly Cloudy SCT065 76 69     79%   77 30.04 30.03      
Jun 09 18:53 S 6 10 Mostly Cloudy FEW030 BKN250 78 57     48%   78 29.91 29.91      
Jun 09 14:53   10 Mostly Cloudy FEW060 BKN250 82 53     37%   81 29.95 29.95      
Jun 09 04:53 WSW 3 10 Clear CLR 59 59     100%     29.93 29.93      
Jun 06 12:53 ENE 13 10 Partly Cloudy SCT030 86 69     57%   90 29.82 29.82      
Jun 06 11:53 NE 11 10 Partly Cloudy SCT026 85 72     65%   91 29.83 29.82      
Jun 06 09:53 NE 10 10 Partly Cloudy FEW015 SCT250 80 73     79%   84 29.84 29.84      
Jun 05 13:53 E 5 7 Mostly Cloudy FEW015 BKN025 BKN250 77 71     82%   78 29.77 29.76 0